Hourly Weather Roundup
Issued by NWS Central Illinois

Home | Current Version | Previous Version | Text Only | Print | Product List | Glossary On
Versions: 1 2 3 4 5 6 7 8 9 10 11 12 13 14 15 16 17 18 19 20 21 22 23 24 25 26 27 28 29 30 31 32 33 34 35 36 37 38 39 40 41 42 43 44 45 46 47 48 49 50
000
NZUS43 KILX 180910
HWRILX

Area Weather Roundup
National Weather Service Lincoln IL
300 AM CST MON DEC 18 2017

NOTE:  "FAIR" indicates few or no clouds below 12,000 feet, with
       no sigificant weather and/or obstructions to visibility.


CITY           SKY/WX    TMP DP  RH WIND       PRES   REMARKS
Bloomington    CLOUDY    43  42  97 SW10      30.00S
Champaign      CLOUDY    44  42  93 SW10      30.02F
Danville       DRIZZLE   42  41  99 SW9       30.00S
Decatur        CLOUDY    45  42  89 SW12      30.02F
Effingham      CLOUDY    44  44 100 S6        30.08S FOG
Flora          CLOUDY    45  44  95 S7        30.08F FOG
Galesburg      CLOUDY    43  43 100 SW7       29.98F FOG
Jacksonville   CLOUDY    44  42  91 SW8       30.03R
Lacon          CLOUDY    43  43 100 SW7       29.98S
Lawrenceville  CLOUDY    44  43  96 SW8       30.10R FOG
Litchfield     CLOUDY    43  42  95 SW6       30.04F
$$


CITY           SKY/WX    TMP DP  RH WIND       PRES   REMARKS
Lincoln        CLOUDY    46  44  95 SW6       30.02R
Macomb         CLOUDY    44  43  95 SW9       30.01F FOG
Mattoon        CLOUDY    43  42  97 SW7       30.04S FOG
Mt Carmel AP   CLOUDY    44  43  97 SW8       30.09S FOG
Olney-Noble AP CLOUDY    43  41  93 S3        30.08F FOG
Paris AP       CLOUDY    42  42  99 SW10      30.05S
Peoria         CLOUDY    45  44  97 SW8       29.99S
Pontiac        CLOUDY    43  43  99 SW8       29.99S
Rantoul        CLOUDY    45  44  97 SW10      30.01S FOG
Robinson       CLOUDY    42  42 100 SW8       30.09S FOG
Springfield    CLOUDY    47  43  86 SW8       30.03S
Taylorville    CLOUDY    44  42  91 SW9       30.03F
$$

...REGIONAL REPORTS...


CITY           SKY/WX    TMP DP  RH WIND       PRES   REMARKS
Chicago O`Hare CLOUDY    43  39  86 SW8       29.92F
Kankakee       CLOUDY    42  40  92 SW10      29.99S
Moline         CLOUDY    42  41  96 W9        29.95F
Mount Sterling CLOUDY    44  42  92 SW6       30.00F
Mount Vernon   CLOUDY    44  43  96 S5        30.09S FOG
Pittsfield     CLOUDY    46  43  91 SW9       30.03S
Quincy         CLOUDY    45  42  89 SW9       30.01S
Rockford       FOG       37  36  96 SW6       29.94S VSB 1/4 WCI  32
$$


CITY           SKY/WX    TMP DP  RH WIND       PRES   REMARKS
Burlington     CLOUDY    43  43 100 SW9       29.97S
Cedar Rapids   CLEAR     31  30  96 W6        29.94R FOG     WCI  25
Des Moines     CLOUDY    27  24  89 SW7       29.97S FOG     WCI  19
Kirksville     CLOUDY    44  44 100 SW8       30.00S
Ottumwa        CLOUDY    38  37  97 W6        29.96S FOG     WCI  33
St Louis       CLOUDY    47  42  83 W6        30.06F
$$


CITY           SKY/WX    TMP DP  RH WIND       PRES   REMARKS
Terre Haute    CLOUDY    43  41  93 SW8       30.07S FOG
Evansville     LGT RAIN  44  44 100 S12       30.11S FOG
Indianapolis   DRIZZLE   41  40  96 SW7       30.05F FOG
Lafayette      CLOUDY    41  40  96 SW6       30.02F FOG
Madison        FOG       32  32 100 CALM      29.91S VSB 1
Milwaukee      DRZL/FOG  35  34  96 W3        29.91F VSB 1
$$





USA.gov is the U.S. government's official web portal to all federal, state and local government web resources and services.